Time,TemperatureF,DewpointF,PressureIn,WindDirection,WindDirectionDegrees,WindSpeedMPH,WindSpeedGustMPH,Humidity,HourlyPrecipIn,Conditions,Clouds,dailyrainin,SoftwareType,DateUTC
2013-03-08 00:00:00,30.2,27.6,30.01,SSE,158,3.0,-999.0,90,0.00,,,0.00,Wunderground v.1.15,2013-03-08 05:00:00,
2013-03-08 00:05:00,30.2,27.6,30.01,SSE,158,3.0,-999.0,90,0.00,,,0.00,Wunderground v.1.15,2013-03-08 05:05:00,
2013-03-08 00:10:00,30.2,27.6,30.00,North,0,3.0,-999.0,90,0.00,,,0.00,Wunderground v.1.15,2013-03-08 05:10:00,
2013-03-08 00:15:00,30.0,27.7,30.00,NE,45,3.0,-999.0,91,0.00,,,0.00,Wunderground v.1.15,2013-03-08 05:15:00,
2013-03-08 00:20:00,29.9,27.6,30.00,NNE,23,3.0,-999.0,91,0.00,,,0.00,Wunderground v.1.15,2013-03-08 05:20:00,
2013-03-08 00:25:00,29.8,27.5,30.00,NNE,23,4.0,-999.0,91,0.00,,,0.00,Wunderground v.1.15,2013-03-08 05:25:00,
2013-03-08 00:30:00,29.7,27.7,29.99,NNE,23,3.0,-999.0,92,0.00,,,0.00,Wunderground v.1.15,2013-03-08 05:30:00,
2013-03-08 00:35:00,29.7,27.7,29.99,NE,45,3.0,-999.0,92,0.00,,,0.00,Wunderground v.1.15,2013-03-08 05:35:00,
2013-03-08 00:40:00,29.7,27.7,29.99,NNE,23,3.0,-999.0,92,0.00,,,0.00,Wunderground v.1.15,2013-03-08 05:40:00,
2013-03-08 00:45:00,29.7,27.7,30.00,East,90,3.0,-999.0,92,0.00,,,0.00,Wunderground v.1.15,2013-03-08 05:45:00,
2013-03-08 00:50:00,29.7,27.7,29.99,NE,45,2.0,-999.0,92,0.00,,,0.00,Wunderground v.1.15,2013-03-08 05:50:00,
2013-03-08 00:55:00,29.7,27.7,29.99,North,0,3.0,-999.0,92,0.00,,,0.00,Wunderground v.1.15,2013-03-08 05:55:00,
2013-03-08 01:00:00,29.7,27.7,29.99,NE,45,4.0,-999.0,92,0.00,,,0.00,Wunderground v.1.15,2013-03-08 06:00:00,
2013-03-08 01:05:00,29.7,27.7,29.99,NNW,338,3.0,-999.0,92,0.00,,,0.00,Wunderground v.1.15,2013-03-08 06:05:00,
2013-03-08 01:10:00,29.7,27.7,29.99,NE,45,3.0,-999.0,92,0.00,,,0.00,Wunderground v.1.15,2013-03-08 06:10:00,
2013-03-08 01:15:00,29.8,27.8,29.98,NNE,23,4.0,-999.0,92,0.00,,,0.00,Wunderground v.1.15,2013-03-08 06:15:00,
2013-03-08 01:20:00,29.8,27.8,29.99,North,0,5.0,-999.0,92,0.00,,,0.00,Wunderground v.1.15,2013-03-08 06:20:00,
2013-03-08 01:25:00,29.9,27.9,29.98,NE,45,4.0,-999.0,92,0.00,,,0.00,Wunderground v.1.15,2013-03-08 06:25:00,
2013-03-08 01:30:00,29.9,27.6,29.99,North,0,4.0,-999.0,91,0.00,,,0.00,Wunderground v.1.15,2013-03-08 06:30:00,
2013-03-08 01:35:00,30.0,28.0,29.99,North,0,2.0,-999.0,92,0.00,,,0.00,Wunderground v.1.15,2013-03-08 06:35:00,
2013-03-08 01:40:00,29.9,27.6,29.99,North,0,3.0,-999.0,91,0.00,,,0.00,Wunderground v.1.15,2013-03-08 06:40:00,
2013-03-08 01:45:00,29.8,27.5,29.99,ENE,68,3.0,-999.0,91,0.00,,,0.00,Wunderground v.1.15,2013-03-08 06:45:00,
2013-03-08 01:50:00,29.7,27.7,29.99,ENE,68,4.0,-999.0,92,0.00,,,0.00,Wunderground v.1.15,2013-03-08 06:50:00,
2013-03-08 01:55:00,29.6,27.6,29.98,ESE,113,4.0,-999.0,92,0.00,,,0.00,Wunderground v.1.15,2013-03-08 06:55:00,
2013-03-08 02:00:00,29.5,27.5,29.98,North,0,3.0,-999.0,92,0.00,,,0.00,Wunderground v.1.15,2013-03-08 07:00:00,
2013-03-08 02:05:00,29.4,27.4,29.97,NE,45,3.0,-999.0,92,0.00,,,0.00,Wunderground v.1.15,2013-03-08 07:05:00,
2013-03-08 02:10:00,29.4,27.6,29.97,NE,45,4.0,-999.0,93,0.00,,,0.00,Wunderground v.1.15,2013-03-08 07:10:00,
2013-03-08 02:15:00,29.3,27.5,29.97,NNE,23,3.0,-999.0,93,0.00,,,0.00,Wunderground v.1.15,2013-03-08 07:15:00,
2013-03-08 02:20:00,29.2,27.4,29.96,NNE,23,5.0,-999.0,93,0.00,,,0.00,Wunderground v.1.15,2013-03-08 07:20:00,
2013-03-08 02:25:00,29.2,27.4,29.97,ENE,68,3.0,-999.0,93,0.00,,,0.00,Wunderground v.1.15,2013-03-08 07:25:00,
2013-03-08 02:30:00,29.2,27.4,29.97,NNE,23,4.0,-999.0,93,0.00,,,0.00,Wunderground v.1.15,2013-03-08 07:30:00,
2013-03-08 02:35:00,29.1,27.3,29.97,North,0,3.0,-999.0,93,0.00,,,0.00,Wunderground v.1.15,2013-03-08 07:35:00,
2013-03-08 02:40:00,29.1,27.3,29.96,North,0,4.0,-999.0,93,0.00,,,0.00,Wunderground v.1.15,2013-03-08 07:40:00,
2013-03-08 02:45:00,29.1,27.3,29.96,NE,45,3.0,-999.0,93,0.00,,,0.00,Wunderground v.1.15,2013-03-08 07:45:00,
2013-03-08 02:50:00,29.1,27.3,29.96,East,90,4.0,-999.0,93,0.00,,,0.00,Wunderground v.1.15,2013-03-08 07:50:00,
2013-03-08 02:55:00,29.1,27.3,29.96,ENE,68,3.0,-999.0,93,0.00,,,0.00,Wunderground v.1.15,2013-03-08 07:55:00,
2013-03-08 03:00:00,29.2,27.4,29.96,NNE,23,3.0,-999.0,93,0.00,,,0.00,Wunderground v.1.15,2013-03-08 08:00:00,
2013-03-08 03:05:00,29.2,27.4,29.96,North,0,3.0,-999.0,93,0.00,,,0.00,Wunderground v.1.15,2013-03-08 08:05:00,
2013-03-08 03:10:00,29.2,27.4,29.96,NW,315,3.0,-999.0,93,0.00,,,0.00,Wunderground v.1.15,2013-03-08 08:10:00,
2013-03-08 03:15:00,29.2,27.4,29.96,East,90,3.0,-999.0,93,0.00,,,0.00,Wunderground v.1.15,2013-03-08 08:15:00,
2013-03-08 03:20:00,29.2,27.4,29.97,NE,45,3.0,-999.0,93,0.00,,,0.00,Wunderground v.1.15,2013-03-08 08:20:00,
2013-03-08 03:25:00,29.2,27.4,29.96,NE,45,3.0,-999.0,93,0.00,,,0.00,Wunderground v.1.15,2013-03-08 08:25:00,
2013-03-08 03:30:00,29.2,27.4,29.97,North,0,3.0,-999.0,93,0.00,,,0.00,Wunderground v.1.15,2013-03-08 08:30:00,
2013-03-08 03:35:00,29.2,27.4,29.96,NNW,338,3.0,-999.0,93,0.00,,,0.00,Wunderground v.1.15,2013-03-08 08:35:00,
2013-03-08 03:40:00,29.1,27.6,29.97,ENE,68,3.0,-999.0,94,0.00,,,0.00,Wunderground v.1.15,2013-03-08 08:40:00,
2013-03-08 03:45:00,29.1,27.6,29.97,North,0,2.0,-999.0,94,0.00,,,0.00,Wunderground v.1.15,2013-03-08 08:45:00,
2013-03-08 03:50:00,29.0,27.5,29.97,NNE,23,4.0,-999.0,94,0.00,,,0.00,Wunderground v.1.15,2013-03-08 08:50:00,
2013-03-08 03:55:00,29.0,27.5,29.97,NE,45,3.0,-999.0,94,0.00,,,0.00,Wunderground v.1.15,2013-03-08 08:55:00,
2013-03-08 04:00:00,28.9,27.4,29.97,NE,45,4.0,-999.0,94,0.00,,,0.00,Wunderground v.1.15,2013-03-08 09:00:00,
2013-03-08 04:05:00,28.9,27.4,29.97,NNE,23,3.0,-999.0,94,0.00,,,0.00,Wunderground v.1.15,2013-03-08 09:05:00,
2013-03-08 04:10:00,28.9,27.4,29.96,NE,45,3.0,-999.0,94,0.00,,,0.00,Wunderground v.1.15,2013-03-08 09:10:00,
2013-03-08 04:15:00,28.8,27.3,29.96,NNE,23,3.0,-999.0,94,0.00,,,0.00,Wunderground v.1.15,2013-03-08 09:15:00,
2013-03-08 04:20:00,28.8,27.3,29.97,NNE,23,4.0,-999.0,94,0.00,,,0.00,Wunderground v.1.15,2013-03-08 09:20:00,
2013-03-08 04:25:00,28.8,27.3,29.97,East,90,3.0,-999.0,94,0.00,,,0.00,Wunderground v.1.15,2013-03-08 09:25:00,
2013-03-08 04:30:00,28.9,27.4,29.96,NE,45,3.0,-999.0,94,0.00,,,0.00,Wunderground v.1.15,2013-03-08 09:30:00,
2013-03-08 04:35:00,29.0,27.5,29.97,NE,45,4.0,-999.0,94,0.00,,,0.00,Wunderground v.1.15,2013-03-08 09:35:00,
2013-03-08 04:40:00,29.2,27.4,29.96,NNE,23,4.0,-999.0,93,0.00,,,0.00,Wunderground v.1.15,2013-03-08 09:40:00,
2013-03-08 04:45:00,29.4,27.6,29.96,NNE,23,5.0,-999.0,93,0.00,,,0.00,Wunderground v.1.15,2013-03-08 09:45:00,
2013-03-08 04:50:00,29.5,27.5,29.96,ENE,68,3.0,-999.0,92,0.00,,,0.00,Wunderground v.1.15,2013-03-08 09:50:00,
2013-03-08 04:55:00,29.6,27.6,29.96,NE,45,4.0,-999.0,92,0.00,,,0.00,Wunderground v.1.15,2013-03-08 09:55:00,
2013-03-08 05:00:00,29.8,27.5,29.97,NNE,23,5.0,-999.0,91,0.00,,,0.00,Wunderground v.1.15,2013-03-08 10:00:00,
2013-03-08 05:05:00,29.9,27.3,29.96,East,90,5.0,-999.0,90,0.00,,,0.00,Wunderground v.1.15,2013-03-08 10:05:00,
2013-03-08 05:10:00,29.9,27.1,29.96,ESE,113,4.0,-999.0,89,0.00,,,0.00,Wunderground v.1.15,2013-03-08 10:10:00,
2013-03-08 05:15:00,30.0,26.9,29.96,NNE,23,3.0,-999.0,88,0.00,,,0.00,Wunderground v.1.15,2013-03-08 10:15:00,
2013-03-08 05:20:00,30.1,27.0,29.96,ENE,68,4.0,-999.0,88,0.00,,,0.00,Wunderground v.1.15,2013-03-08 10:20:00,
2013-03-08 05:25:00,30.1,26.7,29.96,East,90,3.0,-999.0,87,0.00,,,0.00,Wunderground v.1.15,2013-03-08 10:25:00,
2013-03-08 05:30:00,30.1,26.7,29.97,NE,45,4.0,-999.0,87,0.00,,,0.00,Wunderground v.1.15,2013-03-08 10:30:00,
2013-03-08 05:35:00,30.1,26.4,29.96,NE,45,3.0,-999.0,86,0.00,,,0.00,Wunderground v.1.15,2013-03-08 10:35:00,
2013-03-08 05:40:00,30.1,26.4,29.97,NE,45,4.0,-999.0,86,0.00,,,0.00,Wunderground v.1.15,2013-03-08 10:40:00,
2013-03-08 05:45:00,30.1,26.1,29.97,ENE,68,4.0,-999.0,85,0.00,,,0.00,Wunderground v.1.15,2013-03-08 10:45:00,
2013-03-08 05:50:00,30.2,26.2,29.97,NE,45,3.0,-999.0,85,0.00,,,0.00,Wunderground v.1.15,2013-03-08 10:50:00,
2013-03-08 05:55:00,30.2,26.2,29.97,NE,45,4.0,-999.0,85,0.00,,,0.00,Wunderground v.1.15,2013-03-08 10:55:00,
2013-03-08 06:00:00,30.2,25.9,29.97,East,90,3.0,-999.0,84,0.00,,,0.00,Wunderground v.1.15,2013-03-08 11:00:00,
2013-03-08 06:05:00,30.2,25.9,29.97,North,0,3.0,-999.0,84,0.00,,,0.00,Wunderground v.1.15,2013-03-08 11:05:00,
2013-03-08 06:10:00,30.2,25.9,29.97,NE,45,4.0,-999.0,84,0.00,,,0.00,Wunderground v.1.15,2013-03-08 11:10:00,
2013-03-08 06:45:00,30.2,25.7,29.99,NE,52,4.0,5.0,83,0.00,,,0.00,Wunderground v.1.15,2013-03-08 11:45:00,
2013-03-08 06:50:00,30.2,25.4,29.99,North,6,4.0,6.0,82,0.00,,,0.00,Wunderground v.1.15,2013-03-08 11:50:00,
2013-03-08 06:55:00,30.3,25.5,29.99,SE,125,4.0,4.0,82,0.00,,,0.00,Wunderground v.1.15,2013-03-08 11:55:00,
2013-03-08 07:00:00,30.3,25.5,29.99,NE,42,3.0,3.0,82,0.00,,,0.00,Wunderground v.1.15,2013-03-08 12:00:00,
2013-03-08 07:05:00,30.3,25.5,29.99,NNE,33,4.0,6.0,82,0.00,,,0.00,Wunderground v.1.15,2013-03-08 12:05:00,
2013-03-08 07:10:00,30.3,25.2,29.99,North,360,4.0,5.0,81,0.00,,,0.00,Wunderground v.1.15,2013-03-08 12:10:00,
2013-03-08 07:15:00,30.3,25.2,29.99,NNE,19,4.0,5.0,81,0.00,,,0.00,Wunderground v.1.15,2013-03-08 12:15:00,
2013-03-08 07:20:00,30.3,25.2,29.99,NE,55,4.0,4.0,81,0.00,,,0.00,Wunderground v.1.15,2013-03-08 12:20:00,
2013-03-08 07:25:00,30.3,25.2,29.99,NNE,30,5.0,5.0,81,0.00,,,0.00,Wunderground v.1.15,2013-03-08 12:25:00,
2013-03-08 07:30:00,30.3,25.2,29.99,NNE,23,4.0,4.0,81,0.00,,,0.00,Wunderground v.1.15,2013-03-08 12:30:00,
2013-03-08 07:35:00,30.4,25.3,29.99,NNW,345,4.0,5.0,81,0.00,,,0.00,Wunderground v.1.15,2013-03-08 12:35:00,
2013-03-08 07:40:00,30.4,25.3,29.98,NE,38,4.0,4.0,81,0.00,,,0.00,Wunderground v.1.15,2013-03-08 12:40:00,
2013-03-08 07:45:00,30.4,25.3,29.99,NE,50,4.0,4.0,81,0.00,,,0.00,Wunderground v.1.15,2013-03-08 12:45:00,
2013-03-08 07:50:00,30.5,25.1,29.99,ENE,65,4.0,4.0,80,0.00,,,0.00,Wunderground v.1.15,2013-03-08 12:50:00,
2013-03-08 08:00:00,30.6,25.2,29.98,SE,143,5.0,5.0,80,0.00,,,0.00,Wunderground v.1.15,2013-03-08 13:00:00,
2013-03-08 08:05:00,30.6,25.2,29.98,NE,50,5.0,8.0,80,0.00,,,0.00,Wunderground v.1.15,2013-03-08 13:05:00,
2013-03-08 08:10:00,30.7,25.0,29.99,NNW,338,5.0,5.0,79,0.00,,,0.00,Wunderground v.1.15,2013-03-08 13:10:00,
2013-03-08 08:15:00,30.8,25.1,29.99,ENE,62,4.0,9.0,79,0.00,,,0.00,Wunderground v.1.15,2013-03-08 13:15:00,
2013-03-08 08:20:00,30.9,24.8,29.99,ENE,62,5.0,5.0,78,0.00,,,0.00,Wunderground v.1.15,2013-03-08 13:20:00,
2013-03-08 08:25:00,31.1,25.3,29.99,North,3,4.0,5.0,79,0.00,,,0.00,Wunderground v.1.15,2013-03-08 13:25:00,
2013-03-08 08:30:00,31.2,25.1,29.99,NNW,327,4.0,6.0,78,0.00,,,0.00,Wunderground v.1.15,2013-03-08 13:30:00,
2013-03-08 08:35:00,31.3,25.2,29.99,North,6,4.0,6.0,78,0.00,,,0.00,Wunderground v.1.15,2013-03-08 13:35:00,
2013-03-08 08:40:00,31.5,25.4,29.99,ENE,64,4.0,4.0,78,0.00,,,0.00,Wunderground v.1.15,2013-03-08 13:40:00,
2013-03-08 08:45:00,31.5,25.4,29.99,NE,43,4.0,4.0,78,0.00,,,0.00,Wunderground v.1.15,2013-03-08 13:45:00,
2013-03-08 08:50:00,31.6,25.5,29.99,NE,45,3.0,3.0,78,0.00,,,0.00,Wunderground v.1.15,2013-03-08 13:50:00,
2013-03-08 08:55:00,31.8,25.4,29.99,East,79,3.0,3.0,77,0.00,,,0.00,Wunderground v.1.15,2013-03-08 13:55:00,
2013-03-08 09:00:00,32.0,25.6,29.99,ENE,62,3.0,3.0,77,0.00,,,0.00,Wunderground v.1.15,2013-03-08 14:00:00,
2013-03-08 09:05:00,32.1,25.7,29.99,NNE,25,3.0,3.0,77,0.00,,,0.00,Wunderground v.1.15,2013-03-08 14:05:00,
2013-03-08 09:15:00,32.2,25.5,30.00,ENE,78,3.0,12.0,76,0.00,,,0.00,Wunderground v.1.15,2013-03-08 14:15:00,
2013-03-08 09:20:00,32.3,25.6,30.00,ENE,65,4.0,4.0,76,0.00,,,0.00,Wunderground v.1.15,2013-03-08 14:20:00,
2013-03-08 09:25:00,32.4,25.4,30.00,NE,48,4.0,4.0,75,0.00,,,0.00,Wunderground v.1.15,2013-03-08 14:25:00,
2013-03-08 09:30:00,32.4,25.4,30.00,ESE,105,4.0,4.0,75,0.00,,,0.00,Wunderground v.1.15,2013-03-08 14:30:00,
2013-03-08 09:35:00,32.4,25.4,30.00,NNE,25,4.0,5.0,75,0.00,,,0.00,Wunderground v.1.15,2013-03-08 14:35:00,
2013-03-08 09:40:00,32.5,25.5,30.00,NE,37,4.0,4.0,75,0.00,,,0.00,Wunderground v.1.15,2013-03-08 14:40:00,
2013-03-08 09:50:00,32.6,25.6,30.00,NE,50,3.0,3.0,75,0.00,,,0.00,Wunderground v.1.15,2013-03-08 14:50:00,
2013-03-08 09:55:00,32.7,25.6,30.00,North,360,4.0,4.0,75,0.00,,,0.00,Wunderground v.1.15,2013-03-08 14:55:00,
2013-03-08 10:00:00,32.7,25.3,30.00,SSE,154,4.0,5.0,74,0.00,,,0.00,Wunderground v.1.15,2013-03-08 15:00:00,
2013-03-08 10:10:00,33.0,25.6,29.99,East,97,4.0,4.0,74,0.00,,,0.01,Wunderground v.1.15,2013-03-08 15:10:00,
2013-03-08 10:20:00,33.1,25.4,29.99,North,354,4.0,4.0,73,0.00,,,0.01,Wunderground v.1.15,2013-03-08 15:20:00,
2013-03-08 10:25:00,33.1,25.4,29.99,East,87,4.0,6.0,73,0.00,,,0.01,Wunderground v.1.15,2013-03-08 15:25:00,
2013-03-08 10:35:00,33.3,25.6,29.99,ENE,67,4.0,4.0,73,0.00,,,0.01,Wunderground v.1.15,2013-03-08 15:35:00,
2013-03-08 10:40:00,33.4,25.7,30.00,North,2,4.0,4.0,73,0.00,,,0.02,Wunderground v.1.15,2013-03-08 15:40:00,
2013-03-08 10:50:00,33.9,25.8,29.99,NE,34,4.0,4.0,72,0.00,,,0.02,Wunderground v.1.15,2013-03-08 15:50:00,
2013-03-08 10:55:00,34.2,26.1,29.99,North,8,4.0,4.0,72,0.00,,,0.02,Wunderground v.1.15,2013-03-08 15:55:00,
2013-03-08 11:00:00,34.6,26.5,29.99,ENE,74,4.0,4.0,72,0.00,,,0.02,Wunderground v.1.15,2013-03-08 16:00:00,
2013-03-08 11:05:00,34.8,26.0,29.99,NE,53,4.0,4.0,70,0.00,,,0.02,Wunderground v.1.15,2013-03-08 16:05:00,
2013-03-08 11:10:00,35.1,26.3,29.99,NE,54,4.0,4.0,70,0.00,,,0.02,Wunderground v.1.15,2013-03-08 16:10:00,
2013-03-08 11:15:00,35.3,26.5,30.00,NNE,27,4.0,5.0,70,0.00,,,0.02,Wunderground v.1.15,2013-03-08 16:15:00,
2013-03-08 11:25:00,35.9,26.7,30.00,ESE,117,4.0,4.0,69,0.00,,,0.02,Wunderground v.1.15,2013-03-08 16:25:00,
2013-03-08 11:30:00,36.2,26.6,30.00,NNE,17,4.0,4.0,68,0.00,,,0.02,Wunderground v.1.15,2013-03-08 16:30:00,
2013-03-08 11:35:00,36.4,26.8,30.00,North,352,4.0,6.0,68,0.00,,,0.02,Wunderground v.1.15,2013-03-08 16:35:00,
2013-03-08 11:40:00,36.5,26.2,30.00,NE,49,4.0,4.0,66,0.00,,,0.02,Wunderground v.1.15,2013-03-08 16:40:00,
2013-03-08 11:45:00,36.7,26.4,30.00,NE,42,4.0,4.0,66,0.00,,,0.02,Wunderground v.1.15,2013-03-08 16:45:00,
2013-03-08 11:50:00,36.9,27.0,30.00,NNE,17,4.0,4.0,67,0.00,,,0.02,Wunderground v.1.15,2013-03-08 16:50:00,
2013-03-08 11:55:00,37.2,26.9,30.00,NNW,340,4.0,4.0,66,0.00,,,0.03,Wunderground v.1.15,2013-03-08 16:55:00,
2013-03-08 12:00:00,37.5,26.8,29.99,NW,322,4.0,4.0,65,0.00,,,0.03,Wunderground v.1.15,2013-03-08 17:00:00,
2013-03-08 12:05:00,37.8,27.1,30.00,NNE,32,4.0,4.0,65,0.05,,,0.04,Wunderground v.1.15,2013-03-08 17:05:00,
2013-03-08 12:10:00,37.9,26.8,29.99,NNE,22,4.0,4.0,64,0.05,,,0.04,Wunderground v.1.15,2013-03-08 17:10:00,
2013-03-08 12:15:00,38.1,27.0,29.99,North,4,4.0,5.0,64,0.05,,,0.04,Wunderground v.1.15,2013-03-08 17:15:00,
2013-03-08 12:25:00,38.4,26.5,29.99,North,352,4.0,5.0,62,0.00,,,0.04,Wunderground v.1.15,2013-03-08 17:25:00,
2013-03-08 12:30:00,38.5,26.6,29.99,West,276,5.0,5.0,62,0.00,,,0.04,Wunderground v.1.15,2013-03-08 17:30:00,
2013-03-08 12:35:00,38.8,26.9,29.99,East,87,4.0,5.0,62,0.00,,,0.05,Wunderground v.1.15,2013-03-08 17:35:00,
2013-03-08 12:40:00,39.0,27.1,29.99,NNW,347,4.0,9.0,62,0.00,,,0.05,Wunderground v.1.15,2013-03-08 17:40:00,
2013-03-08 12:45:00,39.3,26.6,29.99,NE,35,4.0,9.0,60,0.00,,,0.05,Wunderground v.1.15,2013-03-08 17:45:00,
2013-03-08 12:50:00,39.6,27.2,29.99,ENE,73,4.0,4.0,61,0.00,,,0.05,Wunderground v.1.15,2013-03-08 17:50:00,
2013-03-08 12:55:00,39.8,27.0,29.99,NNE,31,3.0,4.0,60,0.00,,,0.05,Wunderground v.1.15,2013-03-08 17:55:00,
2013-03-08 13:00:00,40.1,26.9,29.99,NNE,27,2.0,2.0,59,0.00,,,0.05,Wunderground v.1.15,2013-03-08 18:00:00,
2013-03-08 13:10:00,40.4,26.8,29.98,SE,142,4.0,6.0,58,0.00,,,0.05,Wunderground v.1.15,2013-03-08 18:10:00,
2013-03-08 13:15:00,40.7,27.1,29.98,NNE,15,3.0,7.0,58,0.00,,,0.05,Wunderground v.1.15,2013-03-08 18:15:00,
2013-03-08 13:25:00,41.0,27.8,29.99,North,358,3.0,4.0,59,0.00,,,0.05,Wunderground v.1.15,2013-03-08 18:25:00,
2013-03-08 13:30:00,41.1,27.0,29.99,ESE,115,3.0,3.0,57,0.00,,,0.05,Wunderground v.1.15,2013-03-08 18:30:00,
2013-03-08 13:35:00,41.3,26.8,29.99,East,90,3.0,3.0,56,0.00,,,0.05,Wunderground v.1.15,2013-03-08 18:35:00,
2013-03-08 13:40:00,41.5,27.0,29.99,NNE,30,2.0,2.0,56,0.00,,,0.05,Wunderground v.1.15,2013-03-08 18:40:00,
2013-03-08 13:45:00,41.7,27.6,29.99,NNW,339,2.0,2.0,57,0.00,,,0.05,Wunderground v.1.15,2013-03-08 18:45:00,
2013-03-08 13:50:00,42.0,26.5,29.99,WNW,291,3.0,4.0,54,0.00,,,0.05,Wunderground v.1.15,2013-03-08 18:50:00,
2013-03-08 13:55:00,42.2,26.7,29.99,NNW,329,3.0,4.0,54,0.00,,,0.05,Wunderground v.1.15,2013-03-08 18:55:00,
2013-03-08 14:00:00,42.5,26.6,29.99,ESE,104,3.0,3.0,53,0.00,,,0.05,Wunderground v.1.15,2013-03-08 19:00:00,
2013-03-08 14:05:00,42.7,26.3,29.99,North,8,3.0,7.0,52,0.00,,,0.05,Wunderground v.1.15,2013-03-08 19:05:00,
2013-03-08 14:15:00,43.3,25.9,29.99,North,356,3.0,3.0,50,0.00,,,0.05,Wunderground v.1.15,2013-03-08 19:15:00,
2013-03-08 14:20:00,43.5,26.6,30.00,NW,307,3.0,3.0,51,0.00,,,0.05,Wunderground v.1.15,2013-03-08 19:20:00,
2013-03-08 14:25:00,43.8,26.3,30.00,SE,135,3.0,3.0,50,0.00,,,0.05,Wunderground v.1.15,2013-03-08 19:25:00,
2013-03-08 14:30:00,44.3,26.3,30.00,North,359,3.0,4.0,49,0.00,,,0.05,Wunderground v.1.15,2013-03-08 19:30:00,
2013-03-08 14:35:00,44.5,25.5,29.99,ESE,108,3.0,7.0,47,0.00,,,0.05,Wunderground v.1.15,2013-03-08 19:35:00,
2013-03-08 14:40:00,44.6,25.6,30.00,NE,56,3.0,3.0,47,0.00,,,0.05,Wunderground v.1.15,2013-03-08 19:40:00,
2013-03-08 14:45:00,44.6,25.1,29.99,East,96,4.0,4.0,46,0.00,,,0.05,Wunderground v.1.15,2013-03-08 19:45:00,
2013-03-08 14:50:00,44.6,24.5,30.00,ENE,74,4.0,4.0,45,0.00,,,0.05,Wunderground v.1.15,2013-03-08 19:50:00,
2013-03-08 14:55:00,44.6,24.5,30.00,ESE,110,4.0,6.0,45,0.00,,,0.06,Wunderground v.1.15,2013-03-08 19:55:00,
2013-03-08 15:00:00,44.5,24.5,30.00,North,358,4.0,5.0,45,0.00,,,0.06,Wunderground v.1.15,2013-03-08 20:00:00,
2013-03-08 15:10:00,44.7,25.7,30.00,NE,40,2.0,2.0,47,0.00,,,0.06,Wunderground v.1.15,2013-03-08 20:10:00,
2013-03-08 15:15:00,45.4,25.3,30.00,NNE,25,2.0,2.0,45,0.00,,,0.06,Wunderground v.1.15,2013-03-08 20:15:00,
2013-03-08 15:20:00,45.5,25.4,30.00,NNE,20,3.0,3.0,45,0.00,,,0.06,Wunderground v.1.15,2013-03-08 20:20:00,
2013-03-08 15:25:00,45.5,25.4,30.00,ENE,62,3.0,3.0,45,0.00,,,0.06,Wunderground v.1.15,2013-03-08 20:25:00,
2013-03-08 15:30:00,45.9,25.7,30.01,NE,34,3.0,6.0,45,0.00,,,0.06,Wunderground v.1.15,2013-03-08 20:30:00,
2013-03-08 15:35:00,45.7,25.0,30.01,NE,46,3.0,10.0,44,0.00,,,0.06,Wunderground v.1.15,2013-03-08 20:35:00,
2013-03-08 15:40:00,45.5,24.8,30.01,North,3,3.0,3.0,44,0.00,,,0.06,Wunderground v.1.15,2013-03-08 20:40:00,
2013-03-08 15:45:00,45.4,25.3,30.01,NNE,17,3.0,4.0,45,0.00,,,0.06,Wunderground v.1.15,2013-03-08 20:45:00,
2013-03-08 15:55:00,45.0,24.9,30.01,WSW,245,3.0,3.0,45,0.00,,,0.06,Wunderground v.1.15,2013-03-08 20:55:00,
2013-03-08 16:00:00,45.1,25.0,30.02,NE,50,2.0,2.0,45,0.00,,,0.06,Wunderground v.1.15,2013-03-08 21:00:00,
2013-03-08 16:10:00,44.8,24.2,30.02,East,82,3.0,3.0,44,0.00,,,0.06,Wunderground v.1.15,2013-03-08 21:10:00,
2013-03-08 16:15:00,45.0,23.3,30.03,NE,38,3.0,4.0,42,0.00,,,0.06,Wunderground v.1.15,2013-03-08 21:15:00,
2013-03-08 16:20:00,44.9,23.2,30.03,East,92,3.0,3.0,42,0.00,,,0.06,Wunderground v.1.15,2013-03-08 21:20:00,
2013-03-08 16:25:00,44.9,24.3,30.03,North,4,3.0,3.0,44,0.00,,,0.06,Wunderground v.1.15,2013-03-08 21:25:00,
2013-03-08 16:30:00,45.2,23.4,30.03,NNE,23,3.0,4.0,42,0.00,,,0.06,Wunderground v.1.15,2013-03-08 21:30:00,
2013-03-08 16:40:00,44.9,23.7,30.03,East,82,3.0,3.0,43,0.00,,,0.06,Wunderground v.1.15,2013-03-08 21:40:00,
2013-03-08 16:45:00,44.5,23.4,30.04,East,92,3.0,3.0,43,0.00,,,0.06,Wunderground v.1.15,2013-03-08 21:45:00,
2013-03-08 16:55:00,44.0,24.0,30.04,East,85,2.0,3.0,45,0.00,,,0.06,Wunderground v.1.15,2013-03-08 21:55:00,
2013-03-08 17:00:00,43.8,24.9,30.04,NNW,344,2.0,2.0,47,0.00,,,0.06,Wunderground v.1.15,2013-03-08 22:00:00,
2013-03-08 17:05:00,43.4,24.5,30.05,NE,35,2.0,2.0,47,0.00,,,0.06,Wunderground v.1.15,2013-03-08 22:05:00,
2013-03-08 17:10:00,43.1,23.7,30.04,ENE,62,3.0,3.0,46,0.00,,,0.06,Wunderground v.1.15,2013-03-08 22:10:00,
2013-03-08 17:15:00,42.8,23.9,30.05,West,260,3.0,3.0,47,0.00,,,0.06,Wunderground v.1.15,2013-03-08 22:15:00,
2013-03-08 17:20:00,42.6,23.8,30.05,NNE,16,3.0,3.0,47,0.00,,,0.06,Wunderground v.1.15,2013-03-08 22:20:00,
2013-03-08 17:25:00,42.3,24.5,30.05,North,350,3.0,3.0,49,0.00,,,0.06,Wunderground v.1.15,2013-03-08 22:25:00,
2013-03-08 17:30:00,42.1,24.3,30.05,ENE,76,2.0,2.0,49,0.00,,,0.06,Wunderground v.1.15,2013-03-08 22:30:00,
2013-03-08 17:40:00,41.6,24.3,30.06,SE,126,2.0,2.0,50,0.00,,,0.06,Wunderground v.1.15,2013-03-08 22:40:00,
2013-03-08 17:45:00,41.6,23.8,30.06,NNE,25,3.0,3.0,49,0.00,,,0.06,Wunderground v.1.15,2013-03-08 22:45:00,
2013-03-08 17:50:00,41.6,23.8,30.06,NNW,346,2.0,2.0,49,0.00,,,0.06,Wunderground v.1.15,2013-03-08 22:50:00,
2013-03-08 17:55:00,41.4,24.6,30.07,North,6,2.0,2.0,51,0.00,,,0.06,Wunderground v.1.15,2013-03-08 22:55:00,
2013-03-08 18:00:00,41.3,24.0,30.07,NE,46,2.0,2.0,50,0.00,,,0.06,Wunderground v.1.15,2013-03-08 23:00:00,
2013-03-08 18:10:00,41.1,24.3,30.07,NE,45,2.0,3.0,51,0.00,,,0.06,Wunderground v.1.15,2013-03-08 23:10:00,
2013-03-08 18:15:00,41.1,23.9,30.08,NNW,346,3.0,7.0,50,0.00,,,0.06,Wunderground v.1.15,2013-03-08 23:15:00,
2013-03-08 18:20:00,41.0,23.8,30.07,NNE,14,3.0,4.0,50,0.00,,,0.06,Wunderground v.1.15,2013-03-08 23:20:00,
2013-03-08 18:25:00,40.9,24.1,30.08,ENE,71,3.0,4.0,51,0.00,,,0.06,Wunderground v.1.15,2013-03-08 23:25:00,
2013-03-08 18:30:00,40.7,24.0,30.07,ENE,60,2.0,3.0,51,0.00,,,0.06,Wunderground v.1.15,2013-03-08 23:30:00,
2013-03-08 18:35:00,40.7,24.0,30.08,NNE,26,2.0,3.0,51,0.00,,,0.06,Wunderground v.1.15,2013-03-08 23:35:00,
2013-03-08 18:40:00,40.6,24.3,30.08,ENE,63,3.0,3.0,52,0.00,,,0.06,Wunderground v.1.15,2013-03-08 23:40:00,
2013-03-08 18:45:00,40.5,23.8,30.08,East,83,2.0,3.0,51,0.00,,,0.06,Wunderground v.1.15,2013-03-08 23:45:00,
2013-03-08 18:50:00,40.5,24.2,30.08,North,9,2.0,2.0,52,0.00,,,0.06,Wunderground v.1.15,2013-03-08 23:50:00,
2013-03-08 18:55:00,40.5,24.2,30.08,NNE,17,3.0,3.0,52,0.00,,,0.06,Wunderground v.1.15,2013-03-08 23:55:00,
2013-03-08 19:07:00,40.3,24.1,30.08,ESE,104,2.0,2.0,52,0.00,,,0.06,Wunderground v.1.15,2013-03-09 00:07:00,
2013-03-08 19:10:00,40.3,24.1,30.08,ESE,106,2.0,2.0,52,0.00,,,0.06,Wunderground v.1.15,2013-03-09 00:10:00,
2013-03-08 19:15:00,40.2,24.4,30.09,NE,56,2.0,2.0,53,0.00,,,0.06,Wunderground v.1.15,2013-03-09 00:15:00,
2013-03-08 19:20:00,40.0,24.7,30.09,SE,133,2.0,2.0,54,0.00,,,0.06,Wunderground v.1.15,2013-03-09 00:20:00,
2013-03-08 19:26:00,40.1,24.3,30.09,NNW,339,2.0,4.0,53,0.00,,,0.06,Wunderground v.1.15,2013-03-09 00:26:00,
2013-03-08 19:35:00,40.0,24.2,30.09,NE,55,2.0,4.0,53,0.00,,,0.06,Wunderground v.1.15,2013-03-09 00:35:00,
2013-03-08 19:40:00,40.1,23.9,30.09,ENE,77,3.0,3.0,52,0.00,,,0.06,Wunderground v.1.15,2013-03-09 00:40:00,
2013-03-08 19:45:00,40.1,24.3,30.09,East,81,3.0,3.0,53,0.00,,,0.06,Wunderground v.1.15,2013-03-09 00:45:00,
2013-03-08 19:50:00,40.1,24.8,30.09,NE,34,3.0,4.0,54,0.00,,,0.06,Wunderground v.1.15,2013-03-09 00:50:00,
2013-03-08 19:55:00,40.0,24.7,30.10,NE,44,3.0,4.0,54,0.00,,,0.06,Wunderground v.1.15,2013-03-09 00:55:00,
2013-03-08 20:00:00,39.9,24.6,30.10,NNE,31,2.0,6.0,54,0.00,,,0.06,Wunderground v.1.15,2013-03-09 01:00:00,
2013-03-08 20:05:00,39.8,24.5,30.10,ESE,104,3.0,6.0,54,0.00,,,0.06,Wunderground v.1.15,2013-03-09 01:05:00,
2013-03-08 20:10:00,39.8,24.9,30.10,ENE,70,2.0,2.0,55,0.00,,,0.06,Wunderground v.1.15,2013-03-09 01:10:00,
2013-03-08 20:15:00,39.6,24.7,30.11,NE,42,2.0,2.0,55,0.00,,,0.06,Wunderground v.1.15,2013-03-09 01:15:00,
2013-03-08 20:20:00,39.6,24.7,30.10,ENE,67,3.0,3.0,55,0.00,,,0.06,Wunderground v.1.15,2013-03-09 01:20:00,
2013-03-08 20:25:00,39.5,24.7,30.10,NNE,31,2.0,7.0,55,0.00,,,0.06,Wunderground v.1.15,2013-03-09 01:25:00,
2013-03-08 20:30:00,39.5,24.7,30.10,NE,51,2.0,3.0,55,0.00,,,0.06,Wunderground v.1.15,2013-03-09 01:30:00,
2013-03-08 20:35:00,39.4,25.0,30.11,East,79,2.0,3.0,56,0.00,,,0.06,Wunderground v.1.15,2013-03-09 01:35:00,
2013-03-08 20:40:00,39.3,24.9,30.11,NE,53,2.0,4.0,56,0.00,,,0.06,Wunderground v.1.15,2013-03-09 01:40:00,
2013-03-08 20:45:00,39.4,25.0,30.11,ENE,68,3.0,5.0,56,0.00,,,0.06,Wunderground v.1.15,2013-03-09 01:45:00,
2013-03-08 20:50:00,39.3,24.9,30.11,NNE,21,4.0,4.0,56,0.00,,,0.06,Wunderground v.1.15,2013-03-09 01:50:00,
2013-03-08 20:55:00,39.3,24.9,30.11,NNE,24,4.0,4.0,56,0.00,,,0.06,Wunderground v.1.15,2013-03-09 01:55:00,
2013-03-08 21:00:00,39.2,24.8,30.11,East,83,3.0,3.0,56,0.00,,,0.06,Wunderground v.1.15,2013-03-09 02:00:00,
2013-03-08 21:05:00,39.2,24.8,30.12,NE,45,3.0,3.0,56,0.00,,,0.06,Wunderground v.1.15,2013-03-09 02:05:00,
2013-03-08 21:10:00,39.1,24.7,30.11,NNE,26,4.0,4.0,56,0.00,,,0.06,Wunderground v.1.15,2013-03-09 02:10:00,
2013-03-08 21:15:00,39.1,25.1,30.12,NE,48,4.0,4.0,57,0.00,,,0.06,Wunderground v.1.15,2013-03-09 02:15:00,
2013-03-08 21:20:00,39.1,25.1,30.11,ENE,77,3.0,3.0,57,0.00,,,0.06,Wunderground v.1.15,2013-03-09 02:20:00,
2013-03-08 21:25:00,38.8,24.9,30.12,NNE,19,3.0,3.0,57,0.00,,,0.06,Wunderground v.1.15,2013-03-09 02:25:00,
2013-03-08 21:30:00,38.8,24.9,30.12,NNE,32,3.0,3.0,57,0.00,,,0.06,Wunderground v.1.15,2013-03-09 02:30:00,
2013-03-08 21:35:00,38.8,24.9,30.12,NE,38,3.0,3.0,57,0.00,,,0.06,Wunderground v.1.15,2013-03-09 02:35:00,
2013-03-08 21:45:00,38.5,25.4,30.12,North,6,3.0,4.0,59,0.00,,,0.06,Wunderground v.1.15,2013-03-09 02:45:00,
2013-03-08 21:50:00,38.3,25.2,30.12,NE,39,2.0,2.0,59,0.00,,,0.06,Wunderground v.1.15,2013-03-09 02:50:00,
2013-03-08 21:55:00,38.2,25.5,30.12,NNE,31,3.0,3.0,60,0.00,,,0.06,Wunderground v.1.15,2013-03-09 02:55:00,
2013-03-08 22:00:00,38.0,25.3,30.12,NE,34,2.0,5.0,60,0.00,,,0.06,Wunderground v.1.15,2013-03-09 03:00:00,
2013-03-08 22:05:00,38.0,24.9,30.12,NE,50,3.0,5.0,59,0.00,,,0.06,Wunderground v.1.15,2013-03-09 03:05:00,
2013-03-08 22:10:00,37.9,25.2,30.12,North,6,3.0,3.0,60,0.00,,,0.06,Wunderground v.1.15,2013-03-09 03:10:00,
2013-03-08 22:15:00,37.8,24.7,30.12,North,1,3.0,3.0,59,0.00,,,0.06,Wunderground v.1.15,2013-03-09 03:15:00,
2013-03-08 22:20:00,37.8,25.1,30.12,NE,39,3.0,4.0,60,0.00,,,0.06,Wunderground v.1.15,2013-03-09 03:20:00,
2013-03-08 22:25:00,37.8,24.7,30.13,NNE,31,4.0,4.0,59,0.00,,,0.06,Wunderground v.1.15,2013-03-09 03:25:00,
2013-03-08 22:30:00,37.7,24.6,30.13,NE,34,4.0,4.0,59,0.00,,,0.06,Wunderground v.1.15,2013-03-09 03:30:00,
2013-03-08 22:40:00,37.6,24.6,30.13,North,350,4.0,6.0,59,0.00,,,0.06,Wunderground v.1.15,2013-03-09 03:40:00,
2013-03-08 22:45:00,37.6,25.0,30.12,NNE,16,3.0,6.0,60,0.00,,,0.06,Wunderground v.1.15,2013-03-09 03:45:00,
2013-03-08 22:50:00,37.4,24.8,30.13,NNE,27,4.0,4.0,60,0.00,,,0.06,Wunderground v.1.15,2013-03-09 03:50:00,
2013-03-08 22:55:00,37.2,24.6,30.12,NE,44,4.0,4.0,60,0.00,,,0.06,Wunderground v.1.15,2013-03-09 03:55:00,
2013-03-08 23:00:00,37.1,24.9,30.13,NNW,333,3.0,3.0,61,0.00,,,0.06,Wunderground v.1.15,2013-03-09 04:00:00,
2013-03-08 23:05:00,37.0,24.8,30.12,NNE,24,3.0,4.0,61,0.00,,,0.06,Wunderground v.1.15,2013-03-09 04:05:00,
2013-03-08 23:10:00,37.0,24.8,30.12,North,353,4.0,5.0,61,0.00,,,0.06,Wunderground v.1.15,2013-03-09 04:10:00,
2013-03-08 23:15:00,36.9,24.7,30.12,East,93,4.0,5.0,61,0.00,,,0.06,Wunderground v.1.15,2013-03-09 04:15:00,
2013-03-08 23:20:00,36.9,24.7,30.12,North,357,4.0,10.0,61,0.00,,,0.06,Wunderground v.1.15,2013-03-09 04:20:00,
2013-03-08 23:25:00,36.8,24.6,30.12,NNW,336,4.0,10.0,61,0.00,,,0.06,Wunderground v.1.15,2013-03-09 04:25:00,
2013-03-08 23:30:00,36.7,24.9,30.12,East,98,3.0,3.0,62,0.00,,,0.06,Wunderground v.1.15,2013-03-09 04:30:00,
2013-03-08 23:35:00,36.6,25.2,30.12,NNE,15,4.0,6.0,63,0.00,,,0.06,Wunderground v.1.15,2013-03-09 04:35:00,
2013-03-08 23:40:00,36.4,25.0,30.12,NNE,20,4.0,4.0,63,0.00,,,0.06,Wunderground v.1.15,2013-03-09 04:40:00,
2013-03-08 23:45:00,36.3,24.9,30.13,NE,44,3.0,4.0,63,0.00,,,0.06,Wunderground v.1.15,2013-03-09 04:45:00,
2013-03-08 23:50:00,36.2,25.2,30.13,NW,314,3.0,8.0,64,0.00,,,0.06,Wunderground v.1.15,2013-03-09 04:50:00,
2013-03-08 23:55:00,36.2,25.2,30.13,NE,54,3.0,8.0,64,0.00,,,0.06,Wunderground v.1.15,2013-03-09 04:55:00,